Lapse_Rate
1.8 2.0 1.9 2.1 2.2 2.6 3.2 3.7 4.8 4.4 5.0 6.0 6.6 7.0 7.1 7.2 6.7 5.4 4.5 4.6 3.9 3.8 5.2 4.7 4.0 4.4 7.2 7.0 5.9 5.1 4.6 5.2 5.8 4.5 4.4 3.9 3.8 4.4 4.3 3.5 4.1 3.5 2.8
2.6 2.4 2.3 2.3 2.8 3.3 3.8 4.4 4.5 4.4 5.4 6.4 6.9 7.1 7.2 7.4 6.8 5.7 4.7 4.2 4.1 4.3 4.6 4.9 3.2 1.5 6.7 6.8 6.0 5.1 3.8 4.0 4.9 6.2 3.8 3.6 4.4 4.1 4.5 4.2 3.9 3.5 3.5
2.5 2.2 2.1 2.5 3.1 3.7 4.5 4.7 4.9 5.3 5.7 5.8 6.6 7.6 7.2 6.5 6.8 5.8 5.6 4.9 3.9 4.2 4.3 4.6 4.3 1.1 2.5 5.2 5.6 5.5 4.5 4.3 4.5 5.7 4.8 3.5 3.1 2.6 4.1 3.5 3.5 3.6 3.5
2.4 2.3 2.4 2.6 3.9 4.3 5.1 5.4 5.8 6.1 6.5 6.2 6.3 7.2 6.6 6.0 6.2 6.1 6.9 5.2 4.3 3.9 3.9 4.8 3.6 4.0 -0.5 -2.4 1.0 2.9 4.9 5.4 5.1 5.2 4.8 3.2 2.6 2.2 3.8 4.4 3.3 3.1 3.7
2.7 2.9 2.8 3.6 4.3 4.9 5.4 5.8 5.9 6.4 6.9 6.6 6.4 6.7 6.3 6.3 6.5 8.0 7.3 5.9 4.3 4.0 3.9 4.3 4.8 4.5 1.9 0.5 -2.1 -3.1 -1.7 2.9 5.2 5.4 5.4 1.9 2.0 0.9 4.2 3.6 3.8 1.7 1.8
2.8 3.1 3.6 4.3 4.7 5.2 5.6 5.9 5.8 5.8 6.4 6.5 6.1 6.9 6.3 7.2 7.2 8.7 7.8 6.3 4.9 4.4 4.4 4.2 4.5 2.7 1.8 1.2 1.3 -3.9 -2.8 -2.6 1.1 2.9 3.4 2.6 3.0 3.5 2.4 2.5 2.7 0.7 2.4
3.1 3.9 4.5 4.9 5.0 5.3 6.0 6.2 6.1 5.6 6.2 6.7 6.3 6.8 6.3 6.8 7.6 8.8 8.3 7.0 6.0 5.4 4.7 5.0 4.8 4.4 2.5 2.5 1.9 -0.6 -0.4 -3.2 -4.0 -1.8 0.8 -0.3 -0.1 -1.3 -0.6 1.4 1.7 1.6 2.0
3.7 4.3 4.9 5.1 5.1 5.5 5.9 5.8 5.8 6.2 6.3 7.1 7.0 7.4 6.2 6.8 7.4 8.6 8.4 7.5 6.7 5.8 5.3 5.2 5.7 4.9 4.6 5.0 1.9 1.4 1.5 1.5 -0.3 0.5 -1.5 -2.4 -2.3 -2.6 -2.4 -1.2 -1.2 -1.9 -2.8
4.3 4.7 5.2 5.6 5.5 5.6 6.0 5.9 6.1 6.5 6.6 7.2 7.8 7.4 6.6 6.2 7.3 8.5 8.7 7.6 6.3 6.1 6.1 5.6 5.8 6.2 5.8 6.4 2.8 2.8 3.4 2.4 1.2 2.4 -1.5 -2.5 -3.0 -3.0 -2.8 -2.4 -1.7 -0.1 -0.1
4.9 5.5 5.9 6.1 5.9 5.9 6.3 5.9 6.3 6.3 7.3 7.4 8.1 7.4 7.0 6.3 7.3 8.8 9.0 7.4 6.6 6.0 5.5 6.1 6.9 6.4 5.9 5.8 4.4 2.8 1.6 1.8 2.5 1.4 -0.7 0.2 -1.3 -0.9 -1.5 -0.8 -0.3 0.5 0.0
5.5 5.9 6.1 6.1 5.9 6.8 6.3 6.0 6.2 6.4 6.6 7.1 7.9 6.5 6.7 6.9 7.9 8.7 9.1 8.2 7.3 4.9 5.5 5.6 5.8 6.7 6.3 5.5 5.0 3.7 3.7 0.6 0.5 0.8 1.6 0.3 -0.4 -0.6 -1.0 -1.1 0.3 -0.2 0.1
5.2 6.0 6.0 5.9 6.2 6.9 6.1 6.8 6.9 6.7 7.0 7.4 7.0 6.1 5.8 6.7 8.1 8.6 9.0 8.2 8.2 5.2 4.4 5.1 5.8 6.3 5.8 5.2 4.5 4.5 4.5 2.3 2.4 1.5 0.8 -0.3 -1.1 -1.1 -0.9 -0.2 0.2 0.2 -0.3
5.3 5.5 5.5 5.7 5.9 6.4 6.0 6.4 6.6 6.5 6.9 7.7 7.1 6.2 6.0 7.0 7.2 8.4 7.4 6.3 5.8 4.9 5.3 5.3 4.5 4.6 4.6 4.7 5.6 5.6 4.5 4.2 2.8 1.8 0.9 0.9 0.4 -0.1 -0.0 0.4 1.4 0.8 0.3
4.4 3.1 3.7 3.5 5.3 4.8 4.9 5.7 5.4 5.9 6.3 7.4 7.1 6.7 6.7 6.8 7.6 7.8 7.5 5.2 5.1 4.1 3.6 3.4 2.9 3.2 3.5 4.5 4.4 4.3 4.8 4.2 3.5 3.1 2.7 2.3 2.0 1.1 0.9 1.0 0.5 1.4 1.4
4.1 2.4 2.8 3.0 2.8 4.1 4.6 3.5 5.8 3.7 7.0 7.7 7.3 7.2 7.4 7.3 7.8 8.5 8.6 6.6 5.6 4.4 2.6 2.0 1.5 1.6 2.1 2.1 2.6 3.6 4.0 3.8 4.0 4.1 3.6 2.5 2.3 2.5 2.0 1.9 1.7 1.8 3.1
4.2 3.6 3.2 3.9 3.5 3.7 3.7 4.0 6.0 7.4 7.7 8.3 8.8 8.7 7.8 8.9 8.9 8.9 8.3 6.4 5.9 4.3 2.1 1.8 1.8 2.2 2.8 3.3 3.2 3.0 3.5 3.4 3.7 4.0 3.6 3.5 3.3 2.7 2.3 2.3 2.3 2.9 2.9
2.8 3.5 3.2 3.2 3.3 4.4 4.9 4.8 4.8 4.3 6.4 7.1 7.3 7.5 7.3 8.0 8.6 8.1 6.0 5.5 4.9 3.0 1.9 2.2 2.1 2.1 2.1 2.5 2.9 3.1 3.0 3.2 3.3 3.4 3.7 4.6 5.0 4.8 3.8 3.2 3.2 3.2 3.4
0.6 1.9 1.8 2.0 2.3 3.6 3.8 3.9 5.3 4.0 2.4 2.6 3.9 6.2 5.8 6.3 6.5 6.0 4.9 2.9 0.6 1.3 2.0 2.3 2.1 2.1 2.2 2.4 2.6 2.3 2.2 2.3 2.7 3.2 3.4 4.0 4.2 4.4 4.4 4.9 4.8 4.1 3.8
0.2 0.8 0.9 0.6 1.4 2.4 2.8 3.9 5.1 4.2 3.6 2.2 -0.1 3.7 3.1 4.9 5.3 4.5 3.8 0.9 1.1 1.3 1.6 1.7 1.8 1.7 1.7 1.7 1.7 1.8 1.8 2.1 2.5 2.5 2.8 3.1 3.4 3.9 4.3 5.0 5.2 4.5 4.5
-0.1 2.0 1.8 1.9 2.2 2.9 3.1 4.3 5.0 5.8 3.3 2.0 3.7 4.5 3.4 2.6 2.3 1.8 1.7 1.5 1.4 1.5 1.5 1.5 1.5 1.4 1.2 1.4 1.3 1.4 1.5 2.0 2.2 2.4 2.5 3.0 3.2 3.5 3.9 4.2 4.4 4.8 4.8
-0.1 1.0 1.8 2.8 2.7 3.3 3.5 4.4 4.6 5.5 5.5 3.7 2.6 0.3 2.7 3.3 2.9 3.2 2.9 2.7 2.4 2.2 2.0 1.8 1.7 1.4 1.5 1.3 1.2 1.0 1.1 1.4 1.9 2.0 2.1 2.5 2.7 2.8 3.3 3.8 4.3 4.6 5.2
2.0 1.9 2.1 1.3 2.7 2.3 2.3 2.7 3.8 4.6 4.9 4.4 4.2 4.0 2.9 3.1 4.4 4.1 4.0 3.6 3.2 2.9 2.5 2.0 1.8 1.9 2.0 2.0 1.8 1.3 1.5 1.7 2.1 2.1 2.0 2.0 2.5 2.9 3.3 3.6 3.7 4.1 4.8
0.9 -0.6 0.7 2.2 1.4 1.6 1.8 1.9 2.8 3.9 5.0 3.4 3.1 3.6 3.6 3.7 4.3 4.7 4.5 4.4 4.0 3.3 2.7 2.0 1.8 1.6 2.0 1.8 1.9 2.0 2.1 2.4 2.3 2.3 2.3 2.4 2.8 3.2 3.3 3.6 4.0 4.3 4.7
0.7 -1.0 1.4 0.4 -0.3 0.8 -0.6 -0.2 0.8 2.6 3.1 3.3 2.1 2.6 3.2 3.7 3.9 4.0 4.3 4.3 4.3 3.8 3.4 2.9 2.3 2.1 1.7 1.6 1.4 1.7 2.3 2.2 2.0 1.4 2.1 2.5 3.0 3.3 3.3 3.6 3.7 3.9 4.5
-2.0 -2.7 -2.6 -1.8 -1.8 -1.7 -1.1 0.4 0.2 0.8 0.8 1.0 1.3 2.8 3.3 3.1 3.6 3.8 3.8 3.8 3.6 3.5 3.9 3.6 3.1 2.7 2.4 1.5 1.1 1.5 1.8 0.8 0.5 0.8 2.2 2.4 2.4 2.0 2.5 2.9 3.1 4.1 4.6
-0.1 -1.2 -1.9 -3.0 -1.9 -1.6 -1.4 -1.6 -0.0 0.2 1.6 1.6 1.3 1.3 1.7 2.6 3.5 3.4 3.5 3.6 3.5 3.6 3.5 3.6 3.6 2.8 2.3 2.0 2.2 2.9 1.3 0.5 0.2 0.4 1.7 2.1 2.0 2.1 2.2 2.5 3.0 4.0 4.6
Wind_Speed
6 6 8 9 9 9 9 10 11 12 13 13 14 15 15 12 15 14 18 17 17 17 17 18 20 20 15 15 12 12 12 11 10 3 9 13 11 12 11 11 15 12 16
6 6 8 8 9 9 10 10 12 12 13 13 14 14 13 13 12 14 16 17 17 18 18 19 19 15 19 19 12 15 13 12 9 11 4 4 8 13 13 10 10 7 10
6 7 8 9 9 10 11 11 12 12 12 13 14 13 14 14 13 14 15 17 16 17 17 17 18 18 13 10 13 10 10 8 9 6 5 3 3 2 7 5 8 9 8
8 9 9 9 10 10 10 11 12 12 12 13 13 13 13 14 13 15 17 16 15 15 17 16 13 17 16 15 7 0 7 9 7 6 4 3 2 3 4 8 5 5 8
8 9 10 10 10 10 11 11 12 12 11 12 12 12 13 12 10 18 16 15 15 15 15 15 12 17 23 18 8 10 8 0 6 7 5 2 3 3 8 4 6 3 5
8 9 9 10 10 9 11 11 12 12 13 11 12 12 13 9 24 27 23 13 14 14 14 13 14 19 20 21 18 18 11 7 4 2 3 4 4 3 3 4 4 3 3
8 10 10 10 11 11 11 11 12 12 13 10 11 12 13 12 25 27 28 10 11 11 12 13 12 10 17 13 15 16 13 15 8 7 0 3 3 4 3 2 1 2 4
9 10 10 11 11 11 11 11 11 10 12 11 11 11 13 11 24 26 28 13 11 11 11 12 12 14 14 14 9 10 8 8 10 6 5 5 5 5 3 3 3 3 2
9 10 10 10 11 11 11 11 11 11 11 11 11 12 13 13 25 27 23 13 13 13 12 11 13 13 24 23 11 9 5 5 12 13 12 10 7 6 4 1 1 1 2
10 10 10 10 10 10 11 11 10 9 10 9 10 11 17 13 23 27 24 11 13 11 11 12 18 17 22 23 11 11 12 7 9 11 10 7 6 5 6 0 1 2 2
9 10 10 10 10 9 10 9 10 10 10 10 9 10 12 14 15 26 28 13 11 11 10 11 11 24 22 24 20 11 11 10 11 8 5 5 6 6 6 6 5 2 1
9 10 10 10 9 8 9 10 11 9 11 10 9 9 9 10 19 22 26 24 22 11 11 9 11 22 23 23 17 21 17 10 6 6 6 7 7 7 8 8 8 5 5
10 10 10 11 10 9 9 10 8 8 7 9 7 8 9 9 9 21 21 24 23 10 9 15 22 22 21 14 18 18 10 6 6 7 7 7 6 6 8 7 7 5 6
8 7 8 8 10 8 6 6 6 6 7 6 7 8 8 8 9 9 9 9 17 13 13 10 12 13 11 9 10 11 8 8 8 8 7 6 6 6 6 6 6 5 4
7 5 6 6 6 7 7 5 6 4 8 8 7 7 9 9 10 17 17 10 10 11 10 8 9 10 9 10 10 10 9 9 8 8 7 7 7 6 7 7 6 6 3
7 6 6 6 6 6 5 7 15 13 15 16 18 14 9 18 22 22 23 19 20 20 7 8 8 9 9 10 10 10 8 11 10 9 9 8 9 9 8 8 6 6 6
5 6 6 6 6 7 7 7 7 8 13 16 18 19 22 22 22 21 22 17 18 14 7 8 8 9 10 10 10 10 10 10 11 9 8 8 7 7 8 8 8 7 7
5 6 4 4 4 6 6 6 5 4 4 5 10 16 21 23 21 21 21 13 7 9 7 6 7 8 8 9 9 9 9 9 8 8 8 8 7 7 7 7 7 8 8
4 4 4 4 4 5 5 6 6 3 5 4 4 7 11 19 18 17 18 6 6 7 8 7 7 7 7 8 8 8 8 8 8 8 8 7 7 7 7 7 7 9 10
4 6 4 4 4 5 5 6 6 6 4 4 5 6 7 7 7 8 7 7 6 6 7 7 7 7 7 7 8 8 8 8 8 8 9 8 8 7 8 8 7 7 7
2 3 5 4 4 5 5 5 6 6 6 4 4 4 8 4 6 6 6 7 7 7 7 7 7 7 8 8 8 8 9 9 9 9 9 9 9 9 9 7 8 8 7
2 3 3 2 3 4 4 4 5 5 5 6 6 7 9 4 6 6 6 6 6 6 6 6 6 7 7 8 8 8 9 9 9 9 10 10 9 9 8 8 8 7 7
2 3 3 3 3 4 4 5 4 5 5 5 6 7 6 6 7 7 8 7 7 7 10 8 7 7 11 12 12 8 8 9 9 9 9 9 9 9 8 8 8 8 7
3 3 3 3 3 3 3 4 4 5 5 5 5 6 6 6 6 7 7 7 7 8 11 10 9 9 12 14 16 17 17 17 17 9 12 9 9 10 8 8 7 9 6
2 3 3 3 3 3 4 4 4 4 4 4 5 6 6 6 6 7 7 7 6 7 9 12 12 15 16 18 18 22 24 25 21 21 12 9 10 11 8 7 7 6 5
2 3 2 3 3 3 3 3 4 4 4 4 4 5 5 6 6 7 7 8 8 7 11 13 15 19 19 17 20 24 24 24 21 23 15 7 8 7 7 8 10 6 6
Wind_Direction
322 327 338 334 334 335 334 332 337 328 329 332 332 329 324 336 338 335 332 323 321 313 308 310 302 276 250 240 211 205 200 200 215 167 200 198 190 206 218 209 212 209 215
321 327 327 332 336 338 337 332 335 332 334 331 333 335 333 340 338 339 333 327 326 322 316 323 326 325 249 231 210 204 200 197 202 199 160 175 199 201 211 202 209 212 213
333 334 335 337 338 338 336 336 335 332 332 338 334 338 339 343 331 342 333 328 326 324 323 323 340 341 336 253 208 205 195 188 195 183 173 163 175 149 205 205 203 207 205
338 342 339 341 336 335 337 337 333 332 333 336 338 337 338 338 332 341 332 332 329 330 332 326 356 346 358 345 5 342 186 182 173 180 170 155 154 155 176 204 204 203 214
337 338 341 337 336 335 340 337 336 333 333 335 332 334 339 340 335 340 336 335 330 334 334 337 335 350 2 360 355 13 0 58 193 189 188 134 170 171 199 194 199 173 228
343 339 340 338 338 341 339 342 336 335 332 337 336 334 341 338 337 340 343 336 331 333 335 337 336 354 348 357 359 29 17 22 350 151 155 159 169 213 165 190 182 141 218
344 338 337 339 341 343 339 342 337 336 332 334 335 337 338 337 343 341 342 336 327 329 336 334 338 333 341 350 358 28 11 23 23 351 302 85 84 34 335 44 152 150 209
343 337 337 339 340 340 340 342 337 334 331 330 333 339 339 340 344 342 345 338 337 335 332 337 335 339 337 345 358 14 6 10 13 342 6 37 42 13 7 327 3 308 299
343 337 335 337 337 339 341 338 336 335 331 332 334 344 342 342 345 346 352 344 342 345 343 340 357 357 356 1 19 16 0 24 0 326 16 11 10 353 314 16 280 145 277
341 335 333 337 337 335 338 335 332 331 333 332 340 347 342 341 342 352 356 349 344 348 347 348 352 7 6 11 18 9 16 356 316 349 12 349 17 5 358 237 250 244 228
334 333 336 337 334 340 335 336 336 337 337 333 355 345 346 346 343 354 358 355 350 345 346 350 346 359 8 11 16 19 7 2 349 351 324 359 23 19 17 3 336 314 248
336 339 338 338 339 341 338 343 344 338 341 338 355 348 346 345 349 356 358 358 357 350 345 344 346 360 5 7 9 7 2 16 355 1 356 14 10 0 351 328 309 287 251
342 342 340 340 339 341 340 344 338 339 337 341 356 349 343 344 344 356 358 358 358 356 350 351 358 6 4 1 2 4 5 4 6 13 11 0 347 334 331 327 318 303 276
338 329 329 335 341 334 336 335 330 337 335 344 351 350 341 341 345 356 358 355 358 356 352 352 353 358 4 353 354 2 0 5 5 2 355 346 341 349 345 335 328 334 306
338 322 328 327 328 325 332 321 330 298 341 354 353 351 346 346 353 357 0 360 3 358 350 357 5 5 355 356 359 5 3 3 355 354 349 351 355 343 346 337 338 329 312
342 339 330 333 334 329 329 332 338 357 1 5 4 7 355 349 355 359 6 6 10 5 5 4 357 356 356 356 353 350 352 355 354 350 351 349 342 339 339 337 341 336 322
336 332 337 341 338 339 340 335 333 337 2 10 8 7 1 357 358 2 5 10 13 16 15 1 355 351 348 349 351 350 347 345 341 344 339 337 334 322 327 335 338 333 320
337 333 335 327 327 334 335 327 330 359 347 341 354 4 1 359 3 7 11 5 6 14 9 359 350 344 343 344 342 339 336 336 340 336 330 328 319 321 327 326 326 322 316
344 330 330 326 328 328 328 333 339 348 354 329 331 4 353 356 2 7 13 17 354 355 354 350 346 343 338 335 332 326 329 328 325 322 321 321 321 322 316 309 307 305 308
333 333 339 334 332 342 337 344 345 350 352 350 355 350 340 354 0 354 356 357 355 349 344 341 339 335 333 330 328 326 325 325 326 326 324 322 319 315 311 309 308 304 296
320 331 342 346 348 342 337 347 344 345 357 340 330 314 332 353 339 344 343 347 347 343 340 337 333 332 332 333 331 329 329 327 326 325 323 321 319 316 314 305 302 298 291
352 339 335 338 338 345 340 332 345 344 355 350 344 341 339 342 344 339 340 340 336 334 332 329 327 327 327 327 326 324 325 322 322 323 322 320 317 313 312 314 308 304 299
359 1 352 344 342 340 352 347 342 345 343 342 340 344 345 346 344 344 341 336 336 331 332 332 329 330 332 328 324 316 318 318 316 312 311 311 309 312 314 311 312 310 308
14 0 356 344 342 345 341 336 335 336 341 340 334 337 337 340 339 341 341 338 339 337 334 332 327 327 329 332 330 329 326 326 324 314 315 311 313 316 315 313 316 316 310
17 359 358 333 337 327 335 339 334 330 326 329 332 339 333 332 336 339 337 336 334 335 338 338 336 334 332 327 327 331 333 332 330 327 324 318 317 318 322 318 321 325 327
350 355 331 331 337 332 324 323 320 316 323 321 323 323 323 329 332 336 337 337 337 333 334 339 340 338 336 335 334 338 337 335 336 334 332 329 331 334 334 330 334 337 337